Tracking 30701 objects as of 15-Jun-2025
HD Live streaming from Space Station
objects crossing your sky now

COSMOS 1275 DEB

Track COSMOS 1275 DEB now!
10-day predictions


NORAD ID: 14406
Int'l Code: 1981-053JE
Perigee: 821.0 km
Apogee: 847.6 km
Inclination: 82.8 °
Period: 101.4 minutes
Semi major axis: 7205 km
RCS: 0.0178 m2 (small)
Launch date: June 4, 1981
Source: Commonwealth of Independent States (former USSR) (CIS)
Launch site: PLESETSK MISSILE AND SPACE COMPLEX (PKMTR)

Note: This is SATELLITE DEBRIS
Your satellite tracking list
Your tracking list is empty




NASA's NSSDC Master Catalog

Two Line Element Set (TLE):
1 14406U 81053JB  25165.91740564  .00003102  00000-0  14639-2 0  9998
2 14406  82.8393 322.7257 0018495 225.4936 288.1931 14.19471758169663
Source of the keplerian elements: AFSPC